Simultaneous Nadir Overpasses (SNOs) Predictions

Prediction of SNOs between METOP-B and NOAA-19 Satellite Orbit:

Table of predicted SNOs for the next 14.0 days since TLE Epoch: 3/21/2015
Index Date (METOP-B) Time (METOP-B) Lat,Lon (METOP-B) SZA (METOP-B ) Date (NOAA-19) Time (NOAA-19) Lat,Lon (NOAA-19) SZA (NOAA-19 ) Distance(km) Time Diff (sec)
1 03/30/2015 09:59:44 -74.75,-152.97 109.01 03/30/2015 09:58:29 -74.75,-153.18 109.00 6.21 75
2 03/30/2015 10:50:25 74.68, 14.16 70.91 03/30/2015 10:49:26 74.69, 14.24 70.93 2.76 59
3 03/30/2015 11:41:07 -74.69,-178.49 109.10 03/30/2015 11:40:30 -74.66,-178.44 109.12 2.91 37
4 03/30/2015 12:31:47 74.66, -11.23 70.87 03/30/2015 12:31:28 74.65, -11.15 70.86 2.32 19
5 03/30/2015 13:22:29 -74.67, 156.12 109.15 03/30/2015 13:22:33 -74.67, 156.03 109.14 2.71 4
6 03/30/2015 14:13:09 74.64, -36.62 70.82 03/30/2015 14:13:31 74.66, -36.69 70.84 2.86 22
7 03/30/2015 15:03:52 -74.60, 130.60 109.24 03/30/2015 15:04:35 -74.63, 130.63 109.21 3.34 43
8 03/30/2015 15:54:31 74.62, -62.01 70.78 03/30/2015 15:55:33 74.62, -62.08 70.77 2.28 62
9 03/30/2015 16:45:21 -74.24, 104.32 109.60 03/30/2015 16:46:31 -74.31, 106.01 109.58 51.45 70




NCC Satellite Simultaneous Nadir Overpasses (SNOs) Prediction Service
